Location: *
(47.1094°N, 0.0222°W)
Time: 17:24:17
(UTC+00:00)

Daily predictions for brighter satellites

Satellite Brightness Start Highest point End
(mag) Time Altitude Azimuth Time Altitude Azimuth Time Altitude Azimuth
Timation 2 Rocket 4.4 17:19:26 10° NNW 17:25:46 48° NE 17:32:16 10° SE
Cosmos 1356 Rocket 3.7 17:24:08 10° SSW 17:28:24 75° WNW 17:32:44 10° N
CZ-4 R/B 2.7 17:26:03 10° ESE 17:28:50 19° ENE 17:31:35 10° NNE
H-2A R/B 4.4 17:27:23 10° SSW 17:31:31 39° W 17:35:45 10° NNW
GRACE-FO 1 4.5 17:27:56 10° N 17:31:33 74° E 17:35:09 10° S
GRACE-FO 2 4.5 17:28:19 10° N 17:31:56 75° E 17:35:32 10° S
COSMO-SKYMED 1 3.4 17:28:23 10° NNE 17:32:13 30° E 17:36:02 10° SSE
Aureole 3 4.4 17:31:13 10° SE 17:33:10 15° E 17:35:02 10° NE
Cosmos 1943 Rocket 4.3 17:30:10 10° W 17:34:30 23° NW 17:38:49 10° N
SeaSat 1 3.9 17:32:43 10° E 17:36:07 19° NE 17:39:32 10° N
Cosmos 1400 Rocket 4.1 17:33:03 10° SE 17:36:12 21° E 17:39:20 10° NE
H-2A R/B 3.1 17:33:51 10° N 17:37:53 48° WNW 17:41:51 10° SW
ATLAS 2AS CENTAUR R/B 4.3 17:32:20 10° NW 17:38:24 24° N 17:44:11 10° ENE
Okean O Rocket 2.1 17:34:33 10° S 17:38:54 64° WSW 17:43:14 10° NNW
USA 215 4.0 17:33:32 10° ENE 17:39:28 38° N 17:45:24 10° WNW
CZ-4B R/B 4.0 17:37:46 10° S 17:43:18 59° WSW 17:48:47 10° NNW
CZ-2C R/B 4.0 17:38:30 10° SE 17:43:33 32° ENE 17:48:30 10° N
ATLAS 5 CENTAUR R/B 3.6 17:41:21 10° W 17:44:46 22° NNW 17:48:35 10° NNE
Cosmos 1825 Rocket 3.5 17:40:19 10° N 17:44:47 75° E 17:49:12 10° SSE
USA 305 3.9 17:41:39 10° WNW 17:45:36 33° N 17:49:00 13° ENE
COSMOS 2487 3.4 17:42:20 10° NNW 17:45:41 51° WSW 17:49:01 10° S
Cosmos 1110 Rocket 4.0 17:42:26 10° S 17:47:39 67° ESE 17:52:50 10° NNE
Cosmos 1689 Rocket 2.7 17:46:15 10° NNE 17:48:54 32° E 17:51:32 10° SSE
YAOGAN 1 3.4 17:45:34 10° SE 17:49:17 29° ENE 17:53:00 10° N
USA 306 3.9 17:47:59 10° WNW 17:51:56 34° N 17:55:01 15° ENE
Cosmos 1908 4.3 17:49:06 10° SSW 17:52:49 49° WNW 17:56:36 10° N
Meteor 2-21 Rocket 4.4 17:47:40 10° N 17:53:54 76° E 18:00:02 10° SSE
ARGOS 4.3 17:50:42 10° ESE 17:54:46 22° ENE 17:58:51 10° N
Cosmos 2227 Rocket 2.7 17:52:43 10° NNW 17:58:02 39° NE 18:03:19 10° ESE
SL-4 R/B 2.5 17:55:45 10° WNW 17:59:08 41° N 18:01:41 17° ENE
Cosmos 1726 Rocket 3.5 17:57:13 10° S 18:01:30 67° E 18:05:53 10° NNE
Cosmos 1656 4.4 17:57:00 10° SSE 18:01:49 31° ESE 18:06:42 10° NE
Cosmos 1892 3.6 17:58:28 10° NNE 18:01:51 27° ENE 18:05:12 10° SE
Cosmos 1758 Rocket 4.4 17:58:12 10° NNW 18:02:32 55° W 18:06:48 10° S
Cosmos 1346 Rocket 3.9 18:01:40 10° NNE 18:04:54 23° ENE 18:06:07 20° E
Cosmos 2263 Rocket 4.1 18:04:03 10° N 18:06:26 12° NNE 18:07:58 11° NE
BREEZE-M R/B 3.5 18:03:03 10° W 18:06:40 65° N 18:11:39 18° E
NOSS 2-2 (C) 4.5 18:01:21 10° NW 18:06:44 67° NE 18:14:13 10° SE
Okean-O 2.7 18:04:24 10° SSE 18:08:43 56° ENE 18:13:05 10° N
CSL-04 Rocket 4.2 18:04:07 10° SE 18:09:09 37° ENE 18:14:10 10° N
CZ-2D R/B 3.1 18:05:32 10° SSE 18:09:18 65° ENE 18:13:06 10° N
MOS 1 Rocket 4.2 18:05:26 10° NE 18:09:20 26° E 18:13:24 10° SSE
FALCON 9 DEB 4.5 18:06:35 10° WNW 18:09:38 29° N 18:11:23 19° NE
Aureole 3 Rocket 3.1 18:07:42 10° SSE 18:11:22 52° E 18:16:21 10° NNE
Cosmos 1300 2.7 18:10:38 10° S 18:14:27 85° W 18:18:17 10° N
Cosmos 2228 3.5 18:12:04 10° SSW 18:16:16 63° W 18:20:31 10° N
Cosmos 1606 Rocket 3.9 18:12:00 10° SSW 18:16:20 68° W 18:20:44 10° N
GEOS 3 Rocket 3.8 18:12:44 14° ESE 18:17:10 58° NE 18:22:28 10° NNW
Cosmos 1697 Rocket 3.7 18:13:41 10° SSE 18:17:58 23° ESE 18:18:40 22° E
Cosmos 1745 Rocket 4.3 18:13:21 10° N 18:19:22 45° ENE 18:25:24 10° SSE
SL-08 R/B 4.4 18:13:14 10° N 18:19:23 61° ENE 18:25:25 10° SSE
Cosmos 44 3.0 18:15:54 10° SSW 18:20:22 77° ESE 18:24:23 15° NE
SKYMED 2 3.5 18:16:05 10° NNE 18:20:28 89° WNW 18:24:49 10° SSW
CZ-4C R/B 4.2 18:15:50 10° NW 18:20:35 21° NNE 18:24:34 14° NE
Lacrosse 5 3.3 18:19:20 10° WNW 18:23:41 28° N 18:26:52 16° NE
Cosmos 1408 3.4 18:22:59 10° N 18:25:49 31° ENE 18:25:49 31° ENE
Cosmos 1825 4.0 18:25:25 10° NNE 18:26:45 17° NNE 18:26:45 17° NNE
H-2A R/B 2.3 18:23:29 10° SE 18:28:41 50° ENE 18:33:57 10° N
CZ-4B R/B 3.7 18:27:38 10° NNW 18:30:19 24° WNW 18:32:57 10° WSW
USA 307 3.5 18:30:13 10° NW 18:34:19 42° NNE 18:35:30 34° ENE
Cosmos 2297 Rocket 2.1 18:32:45 10° NNW 18:38:28 87° ENE 18:44:08 10° SSE
FALCON 9 DEB 2.8 18:35:22 10° SW 18:38:34 67° SSE 18:38:42 66° SE
USA 308 3.5 18:35:01 10° NW 18:39:08 43° NNE 18:40:06 37° NE
Helios 1A Rocket 3.5 18:36:53 10° S 18:40:57 59° WSW 18:45:02 10° NNW
Ariane Rocket 4.1 18:41:47 25° NE 18:41:47 25° NE 18:45:19 10° N
In-Cosmos 22 Rocket 4.1 18:36:21 10° NNW 18:41:44 86° W 18:47:10 10° S
Cosmos 1340 2.9 18:38:56 10° NNW 18:42:42 69° W 18:46:27 10° S
Cosmos 1939 Rocket 4.4 18:40:00 10° SSW 18:43:43 37° W 18:47:24 10° NNW
Geosat 3.9 18:40:17 15° NE 18:44:29 66° ESE 18:49:28 10° SSW
BREEZE-M R/B 3.1 18:37:54 10° W 18:44:46 66° N 18:45:14 55° NE
FALCON 9 DEB 2.8 18:41:49 10° SW 18:44:54 78° S 18:44:54 78° S
Cosmos 2058 Rocket 3.4 18:40:48 10° SSW 18:45:16 69° WNW 18:49:47 10° N
Cosmos 292 Rocket 4.5 18:41:49 10° SW 18:46:31 55° WNW 18:51:17 10° NNE
CSL-04 Debris 4.1 18:41:31 10° SSE 18:46:56 76° ENE 18:52:25 10° NNW
Cosmos 1709 Rocket 4.3 18:43:20 10° N 18:49:26 44° ENE 18:51:44 32° ESE
FALCON 9 DEB 3.3 18:51:11 10° WSW 18:53:58 63° WSW 18:53:58 63° WSW
Cosmos 2058 2.7 18:56:40 10° N 19:00:47 90° E 19:01:47 51° S
CZ-4 R/B 2.6 18:59:55 10° S 19:03:36 40° W 19:07:17 10° NNW
Cosmos 2219 3.8 18:59:52 10° NW 19:05:30 57° WSW 19:11:07 10° S
Cosmos 883 Rocket 4.4 19:00:44 10° SSE 19:06:43 55° E 19:12:41 10° NNE
BREEZE-M TANK 2.7 19:01:36 10° W 19:07:36 60° SSW 19:07:55 57° S
FALCON 9 DEB 4.2 19:04:54 10° WSW 19:07:07 40° W 19:07:07 40° W
COSMO-SKYMED 1 4.5 19:04:32 10° N 19:08:21 30° WNW 19:12:08 10° SW
S3M 3.8 19:02:52 10° S 19:08:59 89° E 19:15:11 10° N
NOSS 3-4 (A) 4.3 19:02:45 10° NNW 19:09:09 41° NE 19:10:31 38° ENE
NOSS 3-4 (C) 4.3 19:02:51 10° NNW 19:09:15 41° NE 19:10:36 38° ENE
Timation 1 Rocket 4.4 19:05:56 10° NNW 19:11:51 54° NE 19:12:19 53° ENE
Cosmos 1400 Rocket 4.5 19:08:39 10° SW 19:12:26 35° WNW 19:16:15 10° N
SeaSat 1 2.3 19:11:59 56° SSE 19:13:03 89° ENE 19:18:01 10° NNW
Cosmos 2082 3.6 19:09:59 10° NNW 19:15:46 81° ENE 19:16:56 58° SE
NOSS 3-3 (A) 3.8 19:13:21 10° SSW 19:19:02 62° ESE 19:19:19 61° ESE
NOSS 3-3 (C) 3.8 19:13:26 10° SSW 19:19:10 61° ESE 19:19:26 61° ESE
USA 215 3.4 19:20:27 50° ENE 19:21:50 61° NNE 19:28:16 10° NW
CZ-2C R/B 4.3 19:17:39 10° S 19:23:13 46° W 19:28:42 10° NNW
Cosmos 1076 Rocket 3.9 19:19:40 10° NNW 19:23:14 58° NW 19:23:14 58° NW
Cosmos 968 Rocket 4.1 19:20:09 10° NNW 19:25:14 53° WSW 19:28:02 25° S
YAOGAN 1 4.3 19:21:27 10° SSW 19:25:18 31° W 19:29:12 10° NNW
USA 305 3.6 19:21:49 10° WNW 19:25:08 50° NW 19:25:08 50° NW
Atlas Centaur 2 4.3 19:20:34 10° SW 19:26:39 22° S 19:27:34 22° SSE
Cosmos 2369 4.0 19:21:53 10° SSW 19:26:15 51° S 19:26:15 51° S
ATLAS 5 CENTAUR R/B 4.3 19:29:11 10° NNW 19:31:19 13° N 19:32:24 12° NNE
ATLAS 2AS CENTAUR R/B 3.2 19:24:11 10° NW 19:31:27 44° NE 19:31:55 44° NE
USA 306 3.9 19:28:07 10° WNW 19:31:10 45° NW 19:31:10 45° NW
Meteor 2-10 Rocket 4.1 19:27:43 10° SSW 19:32:59 57° WNW 19:38:04 10° N
ARGOS 3.5 19:32:00 31° S 19:34:34 64° WSW 19:39:59 10° NNW
SL-4 R/B 3.9 19:35:33 10° WNW 19:37:16 25° NW 19:37:16 25° NW
Cosmos 2227 Rocket 3.4 19:36:53 10° NW 19:42:04 38° WSW 19:45:29 19° SSW
Cosmos 1503 Rocket 4.4 19:40:56 10° NNW 19:46:04 59° WSW 19:46:08 59° WSW
Cosmos 2263 Rocket 3.4 19:46:20 10° NNW 19:49:39 32° N 19:49:39 32° N
Cosmos 1697 Rocket 3.3 19:55:54 10° SW 20:00:29 53° WSW 20:00:29 53° WSW
Lacrosse 5 3.7 20:03:20 10° NW 20:06:03 25° NNW 20:06:03 25° NNW
H-2A R/B 4.1 20:03:52 10° SSW 20:08:20 26° W 20:12:52 10° NW
CZ-4C R/B 3.6 20:04:29 10° NNW 20:09:44 39° NNE 20:09:44 39° NNE
ATLAS 2AS CENTAUR R/B 4.2 21:15:26 10° NW 21:19:21 32° WNW 21:19:21 32° WNW
